Location: Chuathbaluk
(61.5726°N, 159.2454°W)
Time: 04:11:54
(UTC+00:00)

Transit 2A - Pass Details

Date: 04 December 2020
Orbit: 599 x 960 km, 66.7° (Epoch: 26 January)

Event Time Altitude Azimuth Distance (km) Brightness Sun altitude
Rises 09:31:39 0° 303° (WNW) 3,438 9.8 -49.6°
Enters shadow 09:32:31 - 303° (WNW) 3,104 9.6 -49.6°
Reaches altitude 10° 09:34:15 10° 304° (NW) 2,445 - -49.7°
Maximum altitude 09:39:52 87° 33° (NNE) 776 - -49.9°
Drops below altitude 10° 09:44:54 10° 124° (SE) 2,190 - -50.1°
Sets 09:47:07 0° 125° (SE) 3,055 - -50.1°
